Location: Unspecified
(0.0000°N, 0.0000°E)
Time: 00:24:53
(UTC+02:00)

ADEOS II - Visible Passes

Search period start: 30 March 2015 00:00
Search period end: 09 April 2015 00:00
Orbit: 800 x 802 km, 98.3° (Epoch: 29 March)

Date Brightness Start Highest point End Pass type
(mag) Time Alt. Az. Time Alt. Az. Time Alt. Az.
30 Mar 3.4 06:45:30 10° NNE 06:50:23 41° ESE 06:55:20 10° S visible
31 Mar 4.6 06:20:33 10° NE 06:24:13 20° E 06:28:07 10° SSE visible
01 Apr 2.3 07:32:38 10° N 07:37:44 52° WNW 07:42:49 10° SSW visible
02 Apr 2.3 07:06:23 10° NNE 07:11:36 77° E 07:16:53 10° S visible
03 Apr 3.6 06:40:45 10° NE 06:45:29 37° ESE 06:50:20 10° SSE visible
04 Apr 4.8 06:15:59 10° ENE 06:19:19 18° E 06:22:56 10° SE visible
05 Apr 2.2 07:27:41 10° N 07:32:50 58° WNW 07:38:00 10° SSW visible
06 Apr 2.5 07:01:31 10° NNE 07:06:43 68° E 07:11:58 10° S visible
07 Apr 3.8 06:36:00 10° NE 06:40:35 32° E 06:45:18 10° SSE visible
08 Apr 4.9 06:11:27 10° ENE 06:14:25 16° E 06:17:41 10° SE visible
08 Apr 5.5 20:29:20 10° WSW 20:30:59 11° W 20:32:09 10° W visible
